RH
11 11 11 16 18 25 42 42 37 34 24 27 31 34 36 34 30 34 37 31 18 16 15 16 25 32 43 51 53 55 63 71 81 84 92 86 84 86 80 84 94 88 74
20 20 18 16 22 33 38 46 38 41 37 33 37 49 49 47 58 67 72 66 61 60 48 39 38 45 47 51 55 62 67 71 81 85 81 84 82 78 84 92 89 81 74
29 23 21 18 16 26 36 35 38 40 42 50 50 47 41 38 55 78 86 75 75 73 74 74 67 71 63 62 67 73 77 83 84 84 85 76 82 86 92 91 77 83 73
58 37 26 24 22 19 19 19 20 22 26 32 40 36 40 41 50 67 83 83 85 82 75 79 82 90 94 96 89 82 83 84 81 79 75 81 84 88 91 85 83 82 89
77 72 47 26 24 24 22 21 18 18 20 22 26 41 52 45 52 59 64 76 93 94 94 95 95 93 98 98 91 85 82 78 80 80 82 86 85 87 85 93 93 81 72
83 72 73 73 53 28 24 21 18 18 17 17 21 31 40 50 56 52 53 56 62 79 82 85 92 91 87 92 89 87 86 88 90 96 99 93 92 93 98 79 82 90 68
100 87 74 60 60 71 60 35 24 20 18 18 20 23 28 36 48 49 49 49 59 74 76 70 72 81 85 87 88 89 89 90 94 89 90 92 93 89 84 90 96 83 100
96 92 92 85 73 73 73 64 63 46 28 23 22 24 29 38 46 57 65 57 54 61 67 72 70 77 78 75 76 74 79 84 86 96 98 100 100 99 100 100 94 100 88
100 100 99 98 100 94 78 76 75 60 54 49 38 32 31 32 34 37 47 65 76 80 81 82 83 87 88 92 98 100 100 100 100 100 100 100 100 100 100 100 98 88 96
100 92 92 98 100 100 100 95 85 78 81 84 68 48 39 35 34 38 43 49 53 67 77 83 85 89 87 88 90 97 100 100 99 100 100 100 100 100 100 100 100 100 90
100 100 100 99 100 100 100 100 100 100 83 77 94 100 87 75 72 74 76 75 79 82 80 80 85 87 92 100 96 90 100 100 100 100 100 100 100 100 100 100 100 100 86
87 82 77 72 69 66 68 73 76 74 73 79 88 98 100 100 100 100 100 100 99 99 98 100 100 99 87 89 100 100 91 97 100 100 100 100 100 100 100 100 100 98 87
100 100 95 77 69 71 78 78 74 64 58 61 67 73 82 80 79 84 92 95 94 89 85 83 75 68 62 71 83 93 100 100 100 100 100 100 100 100 100 100 99 100 100
94 95 99 100 100 100 96 83 80 88 93 90 84 80 79 82 84 85 79 76 76 75 84 79 72 72 80 98 100 100 100 100 100 100 100 100 100 100 100 96 100 100 100
97 95 89 83 81 84 86 95 97 99 100 100 100 100 100 100 100 100 100 100 100 100 98 94 91 93 100 100 100 100 100 100 100 100 100 100 100 98 98 100 100 100 100
98 96 96 98 92 82 80 76 73 74 79 87 93 92 95 94 94 95 97 98 98 100 100 98 99 100 100 100 100 100 100 100 100 100 100 100 100 100 100 100 100 100 100
80 75 89 98 99 97 95 92 87 78 74 72 67 66 69 76 75 79 82 78 76 73 72 74 82 86 89 96 100 100 100 100 100 98 100 100 100 100 100 100 100 100 100
40 42 45 53 59 65 79 88 89 95 98 94 97 92 91 89 88 83 84 78 77 84 88 87 87 87 94 94 91 96 100 100 100 100 100 100 100 100 100 100 100 100 100
28 29 30 32 35 38 39 43 49 60 72 79 80 78 80 87 91 93 93 90 94 96 100 99 96 99 100 100 100 100 100 100 100 100 100 100 100 100 100 100 100 100 97
28 26 27 28 30 29 31 34 36 40 41 47 50 54 54 49 50 60 70 84 96 90 82 78 84 95 97 97 98 100 100 100 100 100 100 100 98 97 100 97 98 88 76
23 23 24 25 27 28 28 29 30 31 31 32 32 33 34 36 38 38 40 42 45 52 58 59 59 59 58 62 69 79 91 94 90 97 100 89 100 97 78 82 86 62 64
16 16 16 16 16 17 19 22 24 25 26 27 28 27 27 28 30 30 30 32 33 35 37 38 39 40 42 45 53 56 58 53 51 57 69 83 90 83 74 61 55 56 57
9 10 11 12 13 13 14 13 14 13 14 14 16 16 17 18 19 19 20 20 20 21 22 24 26 28 30 31 36 35 42 44 39 55 59 66 66 60 56 63 55 67 50
9 9 10 10 10 9 10 11 10 10 10 12 13 14 16 18 18 19 20 21 21 21 20 21 22 22 22 23 31 37 33 40 48 49 50 57 48 56 68 58 45 39 52
10 11 11 12 12 12 12 10 10 10 10 11 12 12 12 13 13 13 13 13 13 13 13 13 16 18 20 24 28 28 39 37 50 49 55 47 42 49 43 56 45 43 61
7 8 10 12 13 13 12 12 11 11 11 12 13 13 13 13 13 13 15 16 15 16 16 15 17 19 19 21 25 28 30 34 38 38 41 43 48 50 48 40 39 44 35
Wind_Speed
50 47 46 46 46 44 44 44 43 41 41 40 40 40 41 42 42 42 42 43 45 46 46 47 47 48 49 49 51 54 54 56 59 61 63 66 69 73 76 79 82 85 85
56 56 54 50 49 50 51 50 47 47 45 45 44 45 45 45 44 45 44 45 46 46 46 49 50 51 52 53 56 57 60 62 63 65 68 71 75 78 81 83 85 87 89
61 60 60 58 54 55 56 56 54 52 51 50 51 51 50 49 49 49 50 49 49 49 50 52 54 56 56 58 60 62 64 65 67 69 73 77 79 81 85 88 88 91 93
65 65 64 64 64 60 58 59 57 56 55 54 54 54 54 55 54 54 55 55 54 56 56 56 57 59 61 63 64 66 68 71 73 76 79 81 84 85 88 89 91 93 94
70 69 68 68 68 68 65 62 63 62 60 58 57 59 60 60 61 60 59 58 58 60 61 62 63 64 65 66 69 71 74 76 78 81 84 87 89 91 92 92 97 100 100
75 73 73 72 72 73 71 67 66 67 67 64 64 65 64 64 66 65 65 64 62 63 67 67 68 69 69 70 73 75 77 80 83 86 89 93 93 93 96 97 99 100 102
80 79 77 76 76 77 76 75 73 72 71 70 70 69 67 68 69 70 69 68 69 70 72 72 72 73 76 78 79 81 83 86 89 91 92 94 94 96 99 101 101 101 103
82 82 81 81 79 80 80 79 79 78 78 77 76 76 73 72 73 73 73 72 71 73 75 77 76 78 80 83 85 86 88 88 90 91 95 94 95 97 100 100 99 102 108
85 85 84 84 84 84 83 82 82 81 83 82 81 81 79 78 78 79 80 78 75 75 76 76 76 77 79 80 83 84 90 90 93 93 94 96 96 99 98 99 104 108 110
89 88 88 86 86 86 86 86 85 85 85 85 85 85 85 84 85 85 85 83 82 81 82 82 81 83 83 84 87 88 92 95 94 95 96 100 100 97 100 105 109 113 113
93 91 90 88 88 88 87 87 88 89 88 89 89 89 89 89 90 91 90 89 88 88 88 87 88 89 89 90 94 92 93 95 97 98 100 102 100 102 106 109 112 116 120
99 99 99 97 96 96 95 95 92 91 91 91 89 91 92 93 94 95 95 95 93 95 94 94 93 93 91 91 93 97 96 97 98 99 98 101 104 107 109 113 115 119 121
104 105 105 104 103 102 99 98 98 100 100 97 96 95 95 95 95 96 96 97 97 98 98 97 97 96 95 94 95 96 95 96 97 100 102 104 107 111 112 115 119 121 122
112 110 109 107 107 108 108 107 105 103 101 100 100 99 100 100 100 101 100 100 101 101 103 103 100 99 97 97 96 95 97 101 103 106 108 109 112 114 116 118 120 122 123
118 118 118 118 116 114 113 112 111 110 108 106 105 103 102 102 104 104 103 102 102 104 105 105 103 103 102 102 102 104 107 107 109 108 109 113 116 117 119 120 122 122 125
125 124 123 121 122 122 120 119 118 117 116 115 115 114 113 112 112 111 110 110 109 110 111 109 108 109 109 110 111 109 110 109 110 112 114 116 119 121 121 122 123 124 129
133 132 131 130 129 128 126 125 126 126 125 125 124 124 122 120 120 118 117 116 115 115 113 113 114 114 114 113 111 111 112 114 115 117 120 120 122 123 124 125 126 129 129
136 136 134 135 136 135 135 135 134 134 134 133 131 129 129 129 129 128 127 125 121 120 119 120 119 118 117 118 119 119 119 121 122 121 121 123 125 126 127 128 130 130 131
140 139 139 139 139 139 138 137 137 138 138 138 139 139 137 136 136 134 133 129 128 126 124 125 124 123 124 123 122 123 125 124 125 124 126 128 130 130 131 130 131 133 134
144 143 143 143 143 143 143 143 143 143 143 143 143 143 142 140 139 138 136 135 134 132 131 131 131 129 130 129 129 128 127 127 129 130 131 131 132 130 130 130 132 133 132
142 142 142 143 145 145 146 145 144 145 145 144 144 144 144 144 143 141 139 137 135 134 134 135 136 135 134 133 132 131 130 131 130 131 132 132 130 131 130 130 129 127 123
140 141 141 141 141 141 141 142 143 143 142 142 142 143 141 141 141 140 138 136 135 134 132 132 130 129 128 128 128 127 129 126 126 128 127 127 126 127 125 126 125 126 126
125 129 132 134 136 137 137 137 138 139 139 139 139 140 139 138 137 136 135 134 134 133 132 131 129 129 127 127 128 127 125 129 123 124 123 123 123 123 123 124 125 126 123
107 109 114 117 120 120 122 124 125 125 127 129 130 130 130 131 132 131 132 133 134 133 131 129 128 126 125 121 122 125 122 121 123 124 121 122 123 120 122 122 121 116 114
99 100 101 103 104 105 105 107 110 112 112 113 115 115 115 116 116 116 117 119 120 119 117 114 115 118 117 115 119 118 121 117 120 120 122 121 118 117 115 113 111 107 104
87 88 91 95 99 99 99 99 99 100 100 100 100 101 101 99 100 100 102 104 104 105 104 103 101 104 104 104 107 109 111 112 114 112 114 113 112 109 108 104 99 95 87
Wind_Direction
246 244 242 241 245 244 241 241 243 246 247 247 250 254 256 259 261 263 265 266 266 267 268 268 267 268 269 269 273 275 276 279 281 284 287 291 295 297 300 303 305 306 307
243 246 249 248 247 249 249 247 247 247 249 252 253 255 257 260 263 264 265 267 268 271 271 269 268 269 271 273 275 276 279 280 282 286 291 293 297 299 302 304 306 307 307
244 245 248 249 248 247 248 250 250 249 250 251 252 255 260 262 264 264 265 267 270 271 272 273 272 272 273 274 276 279 281 282 286 289 292 295 297 300 302 305 306 306 308
241 243 244 246 248 249 248 250 252 254 255 256 257 260 262 265 266 267 266 267 269 271 272 273 274 275 277 279 281 282 284 286 289 291 293 295 298 300 303 303 305 306 307
243 244 245 247 249 251 252 251 253 255 257 259 259 260 260 263 266 267 269 269 269 270 272 272 274 275 276 278 280 283 285 288 289 291 294 296 298 300 302 304 304 307 307
245 245 247 248 251 252 253 252 252 253 256 258 260 261 262 262 263 264 266 268 270 270 272 275 275 277 278 279 281 283 285 287 290 293 295 297 298 301 302 304 306 306 306
247 247 248 250 252 254 254 255 255 255 256 257 259 261 262 263 265 267 269 269 269 269 271 274 276 277 279 280 282 284 286 288 290 292 295 297 300 302 303 304 305 306 307
248 249 250 251 252 255 256 257 258 259 259 259 259 261 263 265 266 268 269 270 271 271 272 274 275 277 279 281 284 286 289 291 292 294 296 299 301 301 302 302 304 305 306
247 249 251 253 253 254 255 258 259 260 261 262 262 263 264 265 266 267 269 271 272 273 274 275 277 279 280 282 284 287 290 291 293 295 298 298 298 300 301 300 303 305 306
249 249 250 251 252 254 255 257 258 259 261 262 263 265 265 266 267 268 269 270 271 273 274 275 277 278 280 284 285 287 289 292 294 295 295 296 298 299 299 301 302 303 306
245 247 248 249 251 253 254 255 255 257 258 261 262 263 265 266 267 269 270 272 273 274 274 276 277 279 281 284 287 289 289 290 292 293 295 297 298 297 299 300 302 306 307
249 249 249 250 251 253 254 255 256 257 258 259 260 263 265 266 267 268 270 271 272 274 275 277 278 280 282 283 284 286 288 291 293 294 295 294 295 297 298 301 303 305 308
248 251 252 254 255 255 256 257 259 261 261 261 261 261 262 263 265 267 269 271 272 273 273 274 276 278 280 284 285 286 288 288 290 291 291 292 294 296 299 301 304 306 307
251 251 252 254 255 256 257 258 258 259 260 261 263 264 265 266 268 268 269 270 272 274 275 277 280 283 283 283 283 284 284 285 287 288 289 292 294 296 298 301 303 304 306
252 254 255 256 256 256 256 257 257 258 259 260 260 261 263 264 266 268 269 270 272 273 274 277 279 280 280 280 281 283 284 285 286 288 290 292 294 295 299 301 302 302 304
253 254 255 257 258 258 259 259 259 258 259 260 261 262 263 264 266 267 268 269 270 271 272 274 275 277 278 279 279 281 282 284 286 287 290 292 294 296 298 298 300 302 303
254 255 254 255 256 257 258 259 260 262 262 263 264 264 265 266 267 267 268 270 271 272 273 273 274 274 275 276 278 279 281 283 286 288 291 292 293 293 296 298 299 300 302
254 255 257 257 257 257 258 259 259 260 261 262 263 264 265 266 268 269 270 271 272 273 274 274 275 275 275 276 278 281 283 284 286 287 288 290 291 293 296 296 298 300 299
254 255 256 257 258 259 260 261 261 262 261 262 263 264 263 264 266 267 269 270 270 272 273 274 275 275 276 276 277 278 280 282 283 285 287 288 289 291 293 295 296 297 297
254 255 256 257 258 259 260 261 262 262 263 263 263 264 265 265 264 265 266 267 269 271 271 272 272 272 273 274 275 277 279 281 282 283 284 285 287 291 290 292 293 295 296
255 256 256 256 257 257 258 259 260 261 263 263 264 264 264 265 266 267 267 268 268 269 269 270 270 271 272 273 274 275 276 277 279 281 281 284 286 287 290 290 291 294 296
255 256 256 257 258 258 259 260 261 262 262 263 264 264 265 265 266 267 268 269 269 269 269 270 271 272 272 273 274 274 275 277 278 280 281 283 284 285 288 289 292 294 296
258 258 258 260 261 261 261 261 261 262 262 263 264 265 266 267 268 269 269 269 269 269 268 269 270 270 271 272 273 274 275 277 278 278 280 282 284 285 287 289 292 293 296
262 262 262 262 262 263 263 263 264 264 265 265 265 265 265 266 266 267 267 267 267 268 269 269 270 271 272 272 272 273 274 275 277 278 280 280 282 285 285 287 289 293 295
263 263 263 264 265 265 265 265 266 266 266 266 266 267 267 267 267 266 266 267 267 268 268 268 268 268 268 269 269 270 272 273 273 275 277 279 282 283 285 286 288 292 294
261 261 261 262 263 264 264 264 264 263 264 265 265 266 266 266 266 266 266 266 266 266 266 266 266 265 265 264 264 265 267 268 270 271 273 275 278 280 282 286 288 289 291